Total_Precipitation_Accumulation
3.55 3.48 3.42 3.43 3.40 3.34 3.46 3.50 3.38 3.71 3.89 3.48 3.05 2.89 2.95 3.05 2.99 3.00 2.78 2.58 2.53 2.79 3.31 3.67 3.63 3.44 3.21 2.99 2.86 2.80 2.73 2.52 2.37 2.18 2.07 2.14 2.12 2.06 2.03 2.01 1.95 1.87 1.77
3.71 3.79 3.61 3.49 3.26 3.14 3.20 3.33 3.45 3.89 3.87 3.69 3.29 3.03 2.91 2.89 2.74 2.66 2.76 2.92 2.75 2.66 2.88 3.36 3.80 3.83 3.75 3.52 3.22 3.06 2.95 2.86 2.65 2.28 2.05 2.12 2.21 2.19 2.16 2.11 1.98 1.83 1.73
3.49 3.45 3.25 3.10 3.05 3.10 3.28 3.32 3.51 3.69 3.41 3.45 3.30 3.06 2.79 2.57 2.43 2.43 2.61 2.81 2.68 2.66 2.90 3.18 3.50 3.75 4.00 4.16 4.01 3.82 3.45 3.13 2.86 2.52 2.21 2.08 2.06 2.06 2.01 1.99 1.99 1.86 1.71
2.98 3.28 3.06 2.93 3.21 3.21 3.32 3.62 3.78 3.70 3.69 3.74 3.45 3.03 2.75 2.62 2.25 2.16 2.17 2.37 2.59 2.37 2.75 3.07 3.18 3.38 3.89 4.50 4.72 4.64 4.22 3.78 3.45 3.10 2.71 2.41 2.29 2.12 1.92 1.77 1.80 1.76 1.61
2.88 3.22 3.24 3.32 3.35 3.47 3.51 3.33 3.78 3.84 3.80 3.84 3.34 3.08 2.72 2.44 2.26 2.06 1.98 1.96 2.21 2.42 2.58 2.68 2.85 3.06 3.65 4.60 5.05 5.09 4.91 4.45 3.83 3.62 3.45 3.14 2.92 2.57 2.21 1.95 1.83 1.71 1.60
2.95 3.38 3.25 3.23 3.29 3.50 3.61 3.57 3.73 3.79 3.54 3.54 3.17 3.11 2.67 2.16 2.07 2.02 1.85 1.86 2.00 2.07 2.41 2.75 3.05 2.80 3.17 3.86 4.37 4.91 5.23 4.95 4.29 3.91 3.97 3.85 3.69 3.29 2.68 2.30 2.12 1.95 1.81
2.97 3.44 3.21 3.49 3.42 3.45 3.50 3.55 3.71 3.63 3.35 3.54 3.66 3.21 2.59 2.12 2.09 1.86 1.82 1.89 1.95 1.97 2.34 2.81 3.09 3.02 2.74 2.83 3.23 3.81 4.61 4.93 4.68 4.29 4.16 4.14 4.17 3.92 3.27 2.77 2.52 2.25 2.08
3.18 3.22 3.45 3.39 3.44 3.62 3.59 3.56 3.72 3.50 3.14 3.42 3.80 3.86 3.13 2.69 2.19 1.67 1.80 1.95 2.16 2.27 2.35 2.53 2.70 2.97 2.97 3.15 2.86 2.84 3.61 4.51 4.93 4.82 4.49 4.14 4.05 3.95 3.63 3.35 2.98 2.69 2.49
3.44 3.45 3.41 3.32 3.35 3.19 3.30 3.39 3.41 3.42 3.34 3.26 3.57 3.93 3.51 3.02 2.58 1.95 1.83 1.88 2.16 2.47 2.49 2.55 2.60 2.89 3.06 3.52 3.62 3.24 3.07 3.60 4.45 5.20 5.14 4.49 3.97 3.77 3.70 3.60 3.46 3.16 2.86
3.26 3.09 3.03 3.19 3.21 3.00 3.09 2.74 2.91 3.10 3.10 2.95 3.25 3.31 3.34 3.34 3.24 2.53 2.07 1.89 2.04 2.25 2.40 2.35 2.42 2.70 3.04 3.40 3.75 3.54 3.01 2.86 3.33 4.39 5.02 4.91 4.46 4.01 3.69 3.69 3.95 3.91 3.50
3.00 2.67 2.70 2.92 2.89 2.80 2.72 2.62 2.82 2.64 2.56 2.63 2.89 3.10 3.19 3.29 3.16 2.96 2.51 2.44 2.39 2.25 2.20 2.25 2.47 2.66 2.91 3.23 3.67 3.46 3.23 2.99 2.84 3.08 3.73 4.27 4.46 4.33 4.13 4.34 4.79 5.00 4.76
2.74 2.43 2.32 2.51 2.64 2.69 2.67 2.62 2.69 2.56 2.58 2.71 2.73 2.80 3.06 3.09 3.06 3.20 2.74 2.56 2.58 2.31 2.25 2.38 2.42 2.66 2.77 2.97 3.08 3.20 3.11 2.92 2.75 2.73 2.95 3.32 3.65 3.88 3.94 4.29 4.86 5.28 5.49
2.39 2.32 2.34 2.46 2.49 2.55 2.43 2.48 2.53 2.54 2.71 2.79 2.72 2.66 2.78 2.81 2.92 3.20 3.15 2.81 2.68 2.47 2.52 2.45 2.32 2.43 2.42 2.58 2.71 2.77 2.55 2.40 2.29 2.27 2.37 2.56 2.67 2.96 3.23 3.66 4.25 4.82 5.18
2.34 2.44 2.43 2.29 2.25 2.34 2.21 2.48 2.41 2.47 2.71 2.78 2.53 2.81 2.82 2.80 3.08 3.32 3.43 3.52 3.18 2.85 2.76 2.71 2.56 2.36 2.38 2.42 2.47 2.43 2.18 2.12 1.86 1.84 1.93 2.05 2.17 2.32 2.57 2.88 3.39 3.80 3.94
2.38 2.51 2.47 2.38 2.25 2.32 2.42 2.71 2.66 2.60 2.83 2.83 2.85 3.06 2.99 2.90 3.04 3.17 3.37 3.64 3.75 3.34 3.10 3.06 2.87 2.50 2.37 2.39 2.42 2.16 2.20 2.14 1.88 1.77 1.69 1.66 1.76 1.87 1.94 2.16 2.48 2.70 2.84
2.22 2.43 2.56 2.45 2.31 2.36 2.55 2.75 2.74 2.89 3.07 3.11 3.20 3.28 3.22 3.03 3.12 3.15 3.18 3.43 3.78 3.71 3.30 2.91 2.69 2.37 2.23 2.08 2.34 2.12 2.17 2.19 1.98 1.83 1.65 1.56 1.60 1.64 1.64 1.68 1.88 2.06 2.24
2.28 2.33 2.43 2.43 2.37 2.42 2.57 2.64 2.61 2.93 3.08 3.11 3.09 3.11 3.08 3.23 3.20 3.08 3.18 3.36 3.65 3.74 3.32 2.75 2.61 2.55 2.56 2.43 2.44 2.30 2.17 2.13 1.92 1.82 1.65 1.59 1.58 1.60 1.62 1.62 1.66 1.72 1.76
2.31 2.24 2.30 2.31 2.20 2.23 2.46 2.49 2.55 2.85 3.01 2.89 2.91 2.94 2.72 2.79 2.88 2.74 2.89 2.96 3.11 3.37 3.26 2.90 2.81 2.77 2.73 2.63 2.61 2.55 2.30 2.07 1.80 1.79 1.62 1.56 1.59 1.59 1.60 1.59 1.62 1.63 1.66
2.04 2.03 2.05 2.08 2.14 2.30 2.42 2.43 2.46 2.45 2.48 2.56 2.79 2.90 2.68 2.67 2.58 2.60 2.64 2.62 2.69 2.80 3.05 2.95 2.79 2.84 2.77 2.76 2.70 2.48 2.28 2.17 1.80 1.74 1.71 1.62 1.57 1.53 1.51 1.51 1.51 1.61 1.76
1.82 1.87 1.96 2.07 2.15 2.23 2.30 2.40 2.46 2.36 2.33 2.38 2.50 2.57 2.56 2.52 2.45 2.56 2.49 2.51 2.58 2.75 2.90 2.95 2.83 2.91 2.90 2.85 2.89 2.68 2.66 2.48 2.23 1.94 1.89 1.78 1.77 1.73 1.65 1.53 1.48 1.53 1.70
1.88 1.96 2.04 2.05 2.05 2.04 1.98 2.05 2.14 2.15 2.27 2.21 2.11 2.12 2.14 2.19 2.18 2.24 2.09 2.28 2.55 2.71 2.77 2.81 2.80 2.98 3.12 3.16 2.97 2.90 2.94 2.86 2.61 2.26 2.12 1.95 1.89 1.80 1.81 1.77 1.65 1.56 1.56
2.00 2.02 1.98 2.02 2.00 1.74 1.93 2.00 2.00 2.09 2.18 2.17 2.06 1.95 1.85 1.85 1.79 1.82 1.79 1.89 2.20 2.43 2.57 2.73 2.71 2.82 3.03 3.22 3.34 3.31 3.16 3.04 2.93 2.71 2.60 2.49 2.32 2.25 2.13 1.98 1.92 1.78 1.64
2.13 2.08 2.01 2.00 2.03 2.10 2.17 2.00 1.85 1.82 1.91 1.95 1.92 1.89 1.66 1.56 1.75 1.73 1.79 1.77 1.79 1.97 2.15 2.40 2.49 2.42 2.62 2.93 3.23 3.14 3.29 3.34 3.23 3.19 3.19 3.02 2.70 2.48 2.21 2.05 1.95 1.67 1.54
2.34 2.32 2.25 2.17 2.14 2.12 2.12 1.91 1.90 1.81 1.79 1.79 1.80 1.84 1.83 1.75 1.82 1.95 1.91 1.83 1.72 1.69 1.82 1.90 2.00 2.13 2.38 2.74 3.03 3.00 3.08 3.19 3.19 3.15 3.20 3.12 2.78 2.56 2.27 2.12 2.11 1.81 1.54
2.47 2.40 2.33 2.34 2.28 2.28 2.35 2.14 2.15 1.98 1.95 1.95 1.98 1.99 1.96 1.86 2.02 1.99 1.88 1.85 1.80 1.79 1.90 2.00 1.93 2.01 2.25 2.41 2.63 2.74 2.71 2.79 2.70 2.61 2.78 2.96 2.88 2.77 2.55 2.30 2.15 1.99 1.63
2.51 2.51 2.50 2.46 2.45 2.47 2.71 2.53 2.37 2.17 2.15 2.14 2.24 2.23 2.28 2.11 2.11 2.06 1.89 1.90 1.89 1.92 2.05 2.01 1.96 1.91 1.92 2.17 2.44 2.47 2.66 2.87 2.72 2.50 2.26 2.43 2.59 2.81 2.88 2.58 2.33 2.20 2.07